User: anonymous   Login
Location: Acton
(51.4942°N, 0.2232°W)
Time: 23:06:38
(UTC+00:00)
Language:

Cosmos 2082 Rocket - Orbit

View from above orbital plane
View from above orbital plane
View from above satellite
View from above satellite

Ground track
Ground track

The orbit data is extracted from the following two-line orbital elements,

1 20625U 90046B   21210.50810705 -.00000150  00000-0 -53229-4 0  9999
2 20625  70.9977 233.7959 0015362 334.9407  25.0968 14.14674550610184
Epoch (UTC): 29 July 2021 12:11:40
Eccentricity: 0.0015362
inclination: 70.9977°
perigee height: 832 km
apogee height: 854 km
right ascension of ascending node: 233.7959°
argument of perigee: 334.9407°
revolutions per day: 14.14674550
mean anomaly at epoch: 25.0968°
orbit number at epoch: 61018

The dashed part of the orbit path shows where the satellite is in the earth's shadow,  

DLR